• In Germany
  • List of Countries
  • For 7 days
  • Water Temperature
  • Satellite Maps
  • Weather Map
  • Weather Widgets
  • user-avatar
    Login

    Hourly Weather Bad Rappenau

    Today, 25 November, Saturday

    Time Temperature Precipitation Wind Pressure Humidity
    00:00 +10°C° 0.3 mm 3 mps 737 mmHg 90%
    01:00 +10°C° 0 mm 4 mps 737 mmHg 90%
    02:00 +10°C° 0.7 mm 3 mps 736 mmHg 91%
    03:00 +10°C° 0.7 mm 2 mps 736 mmHg 93%
    04:00 +10°C° 0.7 mm 1 mps 735 mmHg 95%
    05:00 +9°C° 2.5 mm 2 mps 734 mmHg 95%
    06:00 +9°C° 2.5 mm 2 mps 734 mmHg 95%
    07:00 +8°C° 2.5 mm 2 mps 734 mmHg 95%
    08:00 +8°C° 1.8 mm 3 mps 734 mmHg 94%
    09:00 +7°C° 1.8 mm 3 mps 734 mmHg 93%
    10:00 +7°C° 1.8 mm 3 mps 735 mmHg 92%
    11:00 +6°C° 0.9 mm 4 mps 735 mmHg 89%
    12:00 +6°C° 0.9 mm 4 mps 736 mmHg 87%
    13:00 +7°C° 0.9 mm 5 mps 736 mmHg 84%
    14:00 +6°C° 0.4 mm 5 mps 737 mmHg 83%
    15:00 +6°C° 0.4 mm 5 mps 737 mmHg 81%
    16:00 +6°C° 0.4 mm 5 mps 738 mmHg 80%
    17:00 +5°C° 0.3 mm 5 mps 739 mmHg 81%
    18:00 +5°C° 0.3 mm 4 mps 739 mmHg 81%
    19:00 +4°C° 0.3 mm 4 mps 740 mmHg 82%
    20:00 +4°C° 0.2 mm 4 mps 741 mmHg 83%
    21:00 +3°C° 0.2 mm 4 mps 742 mmHg 83%
    22:00 +3°C° 0.2 mm 3 mps 742 mmHg 83%
    23:00 +2°C° 0 mm 3 mps 743 mmHg 85%

    Tomorrow, 26 November, Sunday

    Time Temperature Precipitation Wind Pressure Humidity
    00:00 +2°C° 0 mm 3 mps 743 mmHg 87%
    01:00 +1°C° 0 mm 3 mps 744 mmHg 89%
    02:00 +1°C° 0 mm 3 mps 744 mmHg 89%
    03:00 +1°C° 0 mm 3 mps 745 mmHg 89%
    04:00 0°C° 0 mm 3 mps 745 mmHg 89%
    05:00 0°C° 0 mm 3 mps 745 mmHg 90%
    06:00 0°C° 0 mm 3 mps 746 mmHg 91%
    07:00 0°C° 0 mm 3 mps 746 mmHg 91%
    08:00 0°C° 0 mm 3 mps 746 mmHg 89%
    09:00 0°C° 0 mm 4 mps 747 mmHg 87%
    10:00 0°C° 0 mm 4 mps 747 mmHg 85%
    11:00 +1°C° 0 mm 4 mps 747 mmHg 82%
    12:00 +1°C° 0 mm 4 mps 747 mmHg 79%
    13:00 +3°C° 0 mm 4 mps 747 mmHg 76%
    14:00 +3°C° 0 mm 4 mps 747 mmHg 77%
    15:00 +1°C° 0 mm 4 mps 747 mmHg 77%
    16:00 +2°C° 0 mm 3 mps 747 mmHg 77%
    17:00 +2°C° 0 mm 3 mps 748 mmHg 79%
    18:00 +1°C° 0 mm 3 mps 748 mmHg 81%
    19:00 +1°C° 0 mm 3 mps 748 mmHg 83%
    20:00 +1°C° 0 mm 3 mps 748 mmHg 85%
    21:00 0°C° 0 mm 3 mps 749 mmHg 87%
    22:00 0°C° 0 mm 3 mps 749 mmHg 89%
    23:00 0°C° 0 mm 3 mps 749 mmHg 90%

    Day after tomorrow, 27 November, Monday

    Time Temperature Precipitation Wind Pressure Humidity
    00:00 0°C° 0 mm 3 mps 749 mmHg 91%
    01:00 0°C° 0 mm 3 mps 749 mmHg 91%
    02:00 -1°C° 0 mm 3 mps 749 mmHg 92%
    03:00 -1°C° 0 mm 3 mps 749 mmHg 92%
    04:00 -1°C° 0 mm 3 mps 749 mmHg 92%
    05:00 -1°C° 0 mm 3 mps 749 mmHg 91%
    06:00 -1°C° 0 mm 3 mps 749 mmHg 91%
    07:00 -1°C° 0 mm 3 mps 749 mmHg 90%
    08:00 0°C° 0 mm 3 mps 749 mmHg 87%
    09:00 -1°C° 0 mm 4 mps 749 mmHg 83%
    10:00 0°C° 0 mm 4 mps 749 mmHg 80%
    11:00 +1°C° 0 mm 4 mps 749 mmHg 76%
    12:00 +3°C° 0 mm 4 mps 748 mmHg 72%
    13:00 +3°C° 0 mm 4 mps 748 mmHg 68%
    14:00 +3°C° 0 mm 4 mps 747 mmHg 70%
    15:00 +3°C° 0 mm 4 mps 747 mmHg 72%
    16:00 +2°C° 0 mm 3 mps 746 mmHg 74%
    17:00 +2°C° 0 mm 3 mps 746 mmHg 75%
    18:00 +2°C° 0 mm 3 mps 745 mmHg 76%
    19:00 +1°C° 0 mm 3 mps 745 mmHg 78%
    20:00 +1°C° 0 mm 3 mps 744 mmHg 78%
    21:00 0°C° 0 mm 4 mps 744 mmHg 79%
    22:00 0°C° 0 mm 4 mps 743 mmHg 80%
    23:00 0°C° 0 mm 4 mps 742 mmHg 80%

    28 November, Tuesday

    Time Temperature Precipitation Wind Pressure Humidity
    00:00 0°C° 0 mm 4 mps 742 mmHg 79%
    01:00 0°C° 0 mm 3 mps 741 mmHg 79%
    02:00 0°C° 0 mm 4 mps 740 mmHg 78%
    03:00 0°C° 0 mm 4 mps 739 mmHg 76%
    04:00 0°C° 0 mm 4 mps 739 mmHg 75%
    05:00 0°C° 0 mm 4 mps 738 mmHg 73%
    06:00 +1°C° 0 mm 4 mps 737 mmHg 70%
    07:00 +1°C° 0 mm 4 mps 737 mmHg 68%
    08:00 +1°C° 0.1 mm 5 mps 736 mmHg 67%
    09:00 +2°C° 0.1 mm 5 mps 736 mmHg 66%
    10:00 +2°C° 0.1 mm 6 mps 736 mmHg 65%
    11:00 +3°C° 0.3 mm 6 mps 735 mmHg 69%
    12:00 +3°C° 0.3 mm 6 mps 735 mmHg 72%
    13:00 +3°C° 0.3 mm 6 mps 734 mmHg 76%
    14:00 +3°C° 0.1 mm 6 mps 734 mmHg 77%
    15:00 +2°C° 0.1 mm 5 mps 734 mmHg 79%
    16:00 +2°C° 0.1 mm 5 mps 734 mmHg 81%
    17:00 +2°C° 0 mm 5 mps 734 mmHg 83%
    18:00 +1°C° 0 mm 4 mps 734 mmHg 86%
    19:00 +2°C° 0 mm 3 mps 734 mmHg 88%
    20:00 +1°C° 0 mm 3 mps 734 mmHg 89%
    21:00 +1°C° 0 mm 3 mps 734 mmHg 89%
    22:00 +1°C° 0 mm 3 mps 734 mmHg 89%
    23:00 +1°C° 0 mm 3 mps 734 mmHg 90%

    29 November, Wednesday

    Time Temperature Precipitation Wind Pressure Humidity
    00:00 0°C° 0 mm 3 mps 734 mmHg 90%
    01:00 0°C° 0 mm 3 mps 734 mmHg 90%
    02:00 0°C° 0 mm 3 mps 734 mmHg 89%
    03:00 0°C° 0 mm 3 mps 734 mmHg 89%
    04:00 0°C° 0 mm 3 mps 734 mmHg 89%
    05:00 0°C° 0 mm 3 mps 734 mmHg 88%
    06:00 0°C° 0 mm 3 mps 733 mmHg 88%
    07:00 0°C° 0 mm 3 mps 733 mmHg 88%
    08:00 +1°C° 0 mm 3 mps 733 mmHg 86%
    09:00 0°C° 0 mm 4 mps 733 mmHg 84%
    10:00 0°C° 0 mm 4 mps 733 mmHg 82%
    11:00 +1°C° 0 mm 4 mps 733 mmHg 80%
    12:00 +1°C° 0 mm 4 mps 733 mmHg 77%
    13:00 +2°C° 0 mm 5 mps 733 mmHg 75%
    14:00 +1°C° 0 mm 5 mps 733 mmHg 77%
    15:00 +1°C° 0 mm 4 mps 733 mmHg 78%
    16:00 +1°C° 0 mm 4 mps 732 mmHg 79%
    17:00 0°C° 0 mm 4 mps 733 mmHg 80%
    18:00 0°C° 0 mm 4 mps 733 mmHg 82%
    19:00 -1°C° 0 mm 4 mps 733 mmHg 83%
    20:00 -1°C° 0.1 mm 4 mps 733 mmHg 84%
    21:00 0°C° 0.1 mm 4 mps 733 mmHg 84%
    22:00 0°C° 0.1 mm 4 mps 734 mmHg 84%
    23:00 0°C° 0 mm 4 mps 734 mmHg 86%

    30 November, Thursday

    Time Temperature Precipitation Wind Pressure Humidity
    00:00 +1°C° 0 mm 3 mps 733 mmHg 88%
    01:00 +1°C° 0 mm 3 mps 733 mmHg 90%
    02:00 0°C° 0 mm 3 mps 733 mmHg 90%
    03:00 0°C° 0 mm 3 mps 733 mmHg 91%
    04:00 0°C° 0 mm 3 mps 733 mmHg 91%
    05:00 0°C° 0.1 mm 3 mps 733 mmHg 91%
    06:00 0°C° 0.1 mm 3 mps 733 mmHg 90%
    07:00 0°C° 0.1 mm 3 mps 733 mmHg 90%
    08:00 0°C° 0.2 mm 3 mps 733 mmHg 88%
    09:00 0°C° 0.2 mm 3 mps 733 mmHg 87%
    10:00 0°C° 0.2 mm 4 mps 733 mmHg 86%
    11:00 0°C° 0.2 mm 4 mps 733 mmHg 83%
    12:00 0°C° 0.2 mm 4 mps 733 mmHg 81%
    13:00 0°C° 0.2 mm 4 mps 733 mmHg 78%
    14:00 0°C° 0.1 mm 4 mps 733 mmHg 78%
    15:00 +1°C° 0.1 mm 3 mps 733 mmHg 78%
    16:00 0°C° 0.1 mm 3 mps 733 mmHg 77%
    17:00 0°C° 0 mm 3 mps 733 mmHg 80%
    18:00 -1°C° 0 mm 2 mps 733 mmHg 83%
    19:00 -2°C° 0 mm 2 mps 733 mmHg 86%
    20:00 -2°C° 0 mm 2 mps 733 mmHg 86%
    21:00 -2°C° 0 mm 2 mps 733 mmHg 86%
    22:00 -2°C° 0 mm 2 mps 733 mmHg 87%
    23:00 -2°C° 0.1 mm 2 mps 733 mmHg 87%
    Show more